Location: St Paul
(33.9360°N, 83.4200°W)
Time: 08:56:52
(UTC-04:00)

SL-08 R/B - Pass Details

Date: 06 October 2017
Orbit: 949 x 1020 km, 82.9° (Epoch: 17 October)

Event Time Altitude Azimuth Distance (km) Brightness Sun altitude
Rises 20:42:55 0° 181° (S) 3,695 7.5 -19.9°
Reaches altitude 10° 20:45:27 10° 181° (S) 2,740 6.8 -20.4°
Maximum altitude 20:51:44 81° 94° (E) 991 4.4 -21.7°
Drops below altitude 10° 20:57:56 10° 8° (N) 2,707 6.8 -23.0°
Sets 21:00:25 0° 8° (N) 3,648 7.5 -23.5°
